Simultaneous Nadir Overpasses (SNOs) Predictions

Prediction of SNOs near equator between AQUA and NPP Satellite Orbit:

Table of predicted SNOs near equator for the next 14.0 days since TLE Epoch: 11/18/2013
Index Date (AQUA) Time (AQUA) AQUA Lat,Lon Date (NPP) Time (NPP) NPP Lat,Lon Distance(km) Time Diff (sec)
1 11/18/2013 15:43:51 29.97, -36.82 11/18/2013 15:33:51 30.02, -36.93 11.44 600
2 11/18/2013 16:25:35 -2.34, 137.16 11/18/2013 16:16:40 -2.34, 137.09 7.18 535
3 11/18/2013 17:13:50 -2.26, -54.24 11/18/2013 17:06:10 -2.31, -54.57 36.49 460
4 11/18/2013 18:01:58 6.73, 114.37 11/18/2013 17:55:33 6.89, 113.79 65.88 385
5 11/18/2013 18:50:12 -11.38, -77.00 11/18/2013 18:45:03 -11.53, -77.85 93.72 309
6 11/21/2013 07:56:24 15.74, 82.47 11/21/2013 07:46:42 15.74, 82.48 0.57 582
7 11/21/2013 08:41:40 -0.87,-106.65 11/21/2013 08:33:09 -0.82,-106.78 15.79 511
8 11/21/2013 09:29:55 -3.72, 61.95 11/21/2013 09:22:39 -3.83, 61.56 45.03 436
9 11/21/2013 10:18:02 8.26,-129.42 11/21/2013 10:12:02 8.40,-130.08 74.02 360
10 11/24/2013 00:10:48 8.24,-160.00 11/24/2013 00:01:29 8.25,-160.00 0.49 559
11 11/24/2013 00:57:42 0.70, 9.57 11/24/2013 00:49:37 0.74, 9.35 24.60 485
12 11/24/2013 01:45:57 -5.29, 178.17 11/24/2013 01:39:07 -5.38, 177.69 53.77 410
13 11/24/2013 02:34:04 9.83, -13.19 11/24/2013 02:28:30 9.96, -13.94 82.53 334
14 11/26/2013 15:43:22 -28.66, 143.55 11/26/2013 15:33:22 -28.67, 143.50 5.21 600
15 11/26/2013 16:25:35 2.27, -42.83 11/26/2013 16:16:40 2.23, -42.86 5.13 535
16 11/26/2013 17:13:42 2.27, 125.80 11/26/2013 17:06:03 2.34, 125.50 33.88 459
17 11/26/2013 18:01:57 -6.86, -65.60 11/26/2013 17:55:33 -6.99, -66.16 62.85 384
18 11/26/2013 18:50:04 11.39, 103.04 11/26/2013 18:44:56 11.56, 102.22 91.11 308
19 11/29/2013 07:56:44 -17.60, -97.90 11/29/2013 07:47:07 -17.60, -97.90 0.72 577
20 11/29/2013 08:41:33 0.59, 73.43 11/29/2013 08:33:06 0.58, 73.30 13.82 507
21 11/29/2013 09:29:40 3.95,-117.95 11/29/2013 09:22:29 4.00,-118.34 43.60 431
22 11/29/2013 10:17:55 -8.54, 50.65 11/29/2013 10:11:59 -8.64, 50.01 72.19 356
23 11/29/2013 11:06:03 13.01,-140.71 11/29/2013 11:01:22 13.22,-141.61 99.93 281
24 12/02/2013 00:10:35 -8.33, 20.05 12/02/2013 00:01:23 -8.33, 20.04 0.57 552
25 12/02/2013 00:57:30 -1.08,-170.32 12/02/2013 00:49:31 -1.13,-170.53 23.79 479
26 12/02/2013 01:45:36 5.68, -1.68 12/02/2013 01:38:53 5.76, -2.16 53.31 403
27 12/02/2013 02:33:52 -10.20, 166.91 12/02/2013 02:28:24 -10.34, 166.18 81.65 328




NCC Satellite Simultaneous Nadir Overpasses (SNOs) Prediction Service
